GW0092 Weather Reports


Display with metric or nautical units.
time (UTC)temp
F
wind
direction
speed
MPH
gust
MPH
rain 1hr
in
rain 24hr
in
rain mn
in
humidity
%
barometer
mb
20260504203054 68 184 3.0 11.0 0.00 0.00 0.00 69 1013.2
20260504201556 70 146 3.0 5.0 0.00 0.00 0.00 69 1013.0
20260504200057 70 184 3.0 13.0 0.00 0.00 0.00 65 1013.0
20260504194558 71 124 3.0 7.0 0.00 0.00 0.00 65 1013.1
20260504193055 70 180 3.0 8.0 0.00 0.00 0.00 66 1013.1
20260504191552 71 147 2.0 10.0 0.00 0.00 0.00 62 1013.1
20260504190059 71 26 1.0 7.0 0.00 0.00 0.00 62 1013.3
20260504184604 70 16 2.0 7.0 0.00 0.00 0.00 63 1013.4
20260504183059 70 179 1.0 7.0 0.00 0.00 0.00 63 1013.4
20260504181555 71 103 2.0 6.0 0.00 0.00 0.00 61 1013.7
20260504180054 71 265 0.0 5.0 0.00 0.00 0.00 56 1013.7
20260504174553 72 63 5.0 10.0 0.00 0.00 0.00 40 1013.8
20260504173052 71 146 1.0 6.0 0.00 0.00 0.00 56 1014.0
20260504171553 70 150 2.0 7.0 0.00 0.00 0.00 62 1014.1
20260504100103 53 131 0.0 5.0 0.00 0.00 0.00 84 1016.7
20260504081555 53 0 1.0 7.0 0.00 0.00 0.00 82 1017.3
20260504044602 45 0 0.0 1.0 0.00 0.00 0.00 81 1017.2
20260504043054 44 0 0.0 3.0 0.00 0.00 0.00 80 1017.2
20260504041553 42 0 0.0 0.0 0.00 0.00 0.00 78 1017.1
20260504040057 42 0 0.0 0.0 0.00 0.00 0.00 77 1016.8
20260504034615 42 0 0.0 0.0 0.00 0.00 0.00 77 1016.8
20260504033115 42 0 0.0 0.0 0.00 0.00 0.00 77 1016.8
20260504031604 43 0 0.0 0.0 0.00 0.00 0.00 75 1016.6
20260504030054 43 0 0.0 0.0 0.00 0.00 0.00 74 1016.6
20260504024601 43 0 0.0 0.0 0.00 0.00 0.00 73 1016.6
20260504023055 44 0 0.0 0.0 0.00 0.00 0.00 70 1016.5
20260504021554 45 0 0.0 0.0 0.00 0.00 0.00 69 1016.5
20260504020051 45 0 0.0 0.0 0.00 0.00 0.00 69 1016.6
20260504014603 45 0 0.0 0.0 0.00 0.00 0.00 70 1016.7
20260504013055 45 0 0.0 0.0 0.00 0.00 0.00 68 1016.3
20260504011558 45 0 0.0 0.0 0.00 0.00 0.00 67 1016.1
20260504010058 46 0 0.0 0.0 0.00 0.00 0.00 64 1016.0
20260504004553 47 0 0.0 0.0 0.00 0.00 0.00 63 1015.8
20260504003100 49 0 0.0 0.0 0.00 0.00 0.00 59 1015.8
20260504001601 51 0 0.0 0.0 0.00 0.00 0.00 55 1015.4
20260504000053 53 0 0.0 1.0 0.00 0.00 0.00 51 1015.3
20260503234554 55 0 0.0 4.0 0.00 0.00 0.00 45 1015.4
20260503233053 56 342 1.0 6.0 0.00 0.00 0.00 42 1015.3
20260503231551 57 287 2.0 6.0 0.00 0.00 0.00 41 1015.3
20260503230058 59 312 3.0 8.0 0.00 0.00 0.00 39 1015.2
20260503224551 59 335 5.0 12.0 0.00 0.00 0.00 38 1015.1
20260503223052 59 305 5.0 10.0 0.00 0.00 0.00 38 1015.1
20260503221559 59 21 8.0 14.0 0.00 0.00 0.00 37 1015.1
20260503220055 60 316 5.0 11.0 0.00 0.00 0.00 38 1015.1
20260503214549 59 301 8.0 14.0 0.00 0.00 0.00 37 1014.9
20260503213057 60 331 5.0 16.0 0.00 0.00 0.00 37 1014.8
20260503211554 60 4 7.0 16.0 0.00 0.00 0.00 37 1014.6
20260503204556 60 340 6.0 20.0 0.00 0.00 0.00 38 1014.7